Location: Domont
(49.0278°N, 2.3264°E)
Time: 01:26:55
(UTC+00:00)

XW-2A - Pass Details

Date: 02 July 2022
Orbit: 396 x 406 km, 97.2° (Epoch: 08 August)

Event Time Altitude Azimuth Distance (km) Brightness Sun altitude
Exits shadow 21:52:24 - 218° (SW) 2,154 ? -13.0°
Reaches altitude 10° 21:55:24 10° 257° (WSW) 1,446 ? -13.2°
Maximum altitude 21:56:06 11° 270° (W) 1,414 ? -13.3°
Drops below altitude 10° 21:56:48 10° 284° (WNW) 1,449 ? -13.3°
Sets 22:00:16 0° 326° (NW) 2,316 ? -13.6°
